Regional Weather Roundup
Issued by NWS

Home | Current Version | Previous Version | Graphics & Text | Print | Product List | Glossary On
Versions: 1 2 3 4 5 6 7 8 9 10 11 12 13 14 15 16 17 18 19 20 21 22 23 24 25 26 27 28 29 30 31 32 33 34 35 36 37 38 39 40 41 42 43 44 45 46 47 48 49 50
000
ASUS43 KLSX 200810
RWRMO

WEATHER SUMMARY FOR MISSOURI
NATIONAL WEATHER SERVICE SPRINGFIELD MO
300 AM CDT THU JUL 20 2017

NOTE: "FAIR" INDICATES FEW OR NO CLOUDS BELOW 12,000 FEET WITH NO
       SIGNIFICANT WEATHER AND/OR OBSTRUCTIONS TO VISIBILITY.
       CURRENT SKY AND/OR WEATHER CONDITIONS ARE NOT AVAILABLE FOR
       CHILLICOTHE AND FARMINGTON.

MOZ001>031-035>038-043-044-053-054-200900-
...NORTHERN AND WESTERN MISSOURI...

CITY           SKY/WX    TMP DP  RH WIND       PRES   REMARKS
KANSAS CTY INT PTCLDY    80  70  71 SW10      30.03R
KANSAS C DTWN  CLOUDY    84  70  62 S9        30.01R
LEE`S SUMMIT   CLEAR     81  70  69 SW9       30.04S
ST JOSEPH      PTCLDY    78  74  87 S6        30.00S
CHILLICOTHE      N/A     79  74  84 S5        30.02S
KIRKSVILLE     CLOUDY    78  73  84 S5        30.03R

$$
MOZ066>068-077>081-088>096-101>105-200900-
...SOUTHWEST MISSOURI...

CITY           SKY/WX    TMP DP  RH WIND       PRES   REMARKS
SPRINGFIELD    CLEAR     75  70  84 S6        30.09F
JOPLIN         CLEAR     79  72  79 S8        30.07F
BRANSON        CLEAR     75  68  78 S3        30.12F

$$
MOZ032>034-039>042-045>050-055>058-069>072-200900-
...CENTRAL MISSOURI...

CITY           SKY/WX    TMP DP  RH WIND       PRES   REMARKS
COLUMBIA       CLEAR     75  71  87 S6        30.05S
JEFFERSON CITY CLEAR     78  74  87 VRB3      30.04S
ROLLA          CLEAR     75  70  84 S8        30.08F
SEDALIA        CLEAR     78  72  81 SW6       30.06S
WHITEMAN AFB   PTCLDY    74  74 100 S9        30.04S
WARRENSBURG    CLEAR     77  70  78 S5        30.05R
OSAGE BEACH    CLEAR     75  70  84 CALM      30.08S

$$
MOZ051-052-059>065-200900-
...EAST CENTRAL MISSOURI...

CITY           SKY/WX    TMP DP  RH WIND       PRES   REMARKS
ST LOUIS INTL  PTCLDY    86  69  56 SW9       30.04F HX  90
SPIRIT OF STL  CLEAR     78  72  81 SW7       30.02F
ST CHARLES     PTCLDY    77  74  90 CALM      30.02F

$$
MOZ072>076-082>087-097>100-106>115-200900-
...SOUTH CENTRAL AND SOUTHEAST MISSOURI...

CITY           SKY/WX    TMP DP  RH WIND       PRES   REMARKS
CAPE GIRARDEAU PTCLDY    74  70  87 CALM      30.07F
FARMINGTON     CLEAR     74  72  93 S3        30.10F
POPLAR BLUFF   CLEAR     75  75 100 CALM      30.07F FOG
WEST PLAINS    CLEAR     76  70  82 SW6       30.12F

$$



USA.gov is the U.S. government's official web portal to all federal, state and local government web resources and services.